Time,TemperatureF,DewpointF,PressureIn,WindDirection,WindDirectionDegrees,WindSpeedMPH,WindSpeedGustMPH,Humidity,HourlyPrecipIn,Conditions,Clouds,dailyrainin,SoftwareType,DateUTC
2013-03-10 00:02:00,29.0,-99.9,-100.00,North,-999,1.0,-999.0,-999,-99.99,,,-99.99,,2013-03-10 06:02:00,
2013-03-10 00:11:00,29.0,-99.9,-100.00,North,-999,0.0,-999.0,-999,-99.99,,,-99.99,,2013-03-10 06:11:00,
2013-03-10 00:22:00,29.0,-99.9,-100.00,NNW,343,1.0,-999.0,-999,-99.99,,,-99.99,,2013-03-10 06:22:00,
2013-03-10 00:32:00,29.0,-99.9,-100.00,NNW,340,4.0,-999.0,-999,-99.99,,,-99.99,,2013-03-10 06:32:00,
2013-03-10 00:42:00,29.0,-99.9,-100.00,NNW,343,3.0,-999.0,-999,-99.99,,,-99.99,,2013-03-10 06:42:00,
2013-03-10 00:52:00,29.0,-99.9,-100.00,North,-999,1.0,-999.0,-999,-99.99,,,-99.99,,2013-03-10 06:52:00,
2013-03-10 01:02:00,29.0,-99.9,-100.00,North,-999,1.0,-999.0,-999,-99.99,,,-99.99,,2013-03-10 07:02:00,
2013-03-10 01:11:00,29.0,-99.9,-100.00,NNW,343,2.0,-999.0,-999,-99.99,,,-99.99,,2013-03-10 07:11:00,
2013-03-10 01:22:00,29.0,-99.9,-100.00,North,-999,3.0,-999.0,-999,-99.99,,,-99.99,,2013-03-10 07:22:00,
2013-03-10 01:32:00,29.0,-99.9,-100.00,West,267,2.0,-999.0,-999,-99.99,,,-99.99,,2013-03-10 07:32:00,
2013-03-10 01:42:00,29.0,-99.9,-100.00,North,-999,4.0,-999.0,-999,-99.99,,,-99.99,,2013-03-10 07:42:00,
2013-03-10 01:52:00,29.0,-99.9,-100.00,North,-999,4.0,-999.0,-999,-99.99,,,-99.99,,2013-03-10 07:52:00,
2013-03-10 03:02:00,29.0,-99.9,-100.00,North,-999,4.0,-999.0,-999,-99.99,,,-99.99,,2013-03-10 08:02:00,
2013-03-10 03:12:00,29.0,-99.9,-100.00,NNW,341,4.0,-999.0,-999,-99.99,,,-99.99,,2013-03-10 08:12:00,
2013-03-10 03:21:00,29.0,-99.9,-100.00,North,-999,3.0,-999.0,-999,-99.99,,,-99.99,,2013-03-10 08:21:00,
2013-03-10 03:32:00,29.0,-99.9,-100.00,North,-999,2.0,-999.0,-999,-99.99,,,-99.99,,2013-03-10 08:32:00,
2013-03-10 03:42:00,29.0,-99.9,-100.00,North,-999,1.0,-999.0,-999,-99.99,,,-99.99,,2013-03-10 08:42:00,
2013-03-10 03:52:00,28.0,-99.9,-100.00,North,-999,4.0,-999.0,-999,-99.99,,,-99.99,,2013-03-10 08:52:00,
2013-03-10 04:02:00,28.0,-99.9,-100.00,North,-999,4.0,-999.0,-999,-99.99,,,-99.99,,2013-03-10 09:02:00,
2013-03-10 04:11:00,28.0,-99.9,-100.00,NNW,339,10.0,-999.0,-999,-99.99,,,-99.99,,2013-03-10 09:11:00,
2013-03-10 04:21:00,28.0,-99.9,-100.00,North,-999,2.0,-999.0,-999,-99.99,,,-99.99,,2013-03-10 09:21:00,
2013-03-10 04:32:00,28.0,-99.9,-100.00,North,-999,3.0,-999.0,-999,-99.99,,,-99.99,,2013-03-10 09:32:00,
2013-03-10 04:42:00,28.0,-99.9,-100.00,North,-999,3.0,-999.0,-999,-99.99,,,-99.99,,2013-03-10 09:42:00,
2013-03-10 04:52:00,28.0,-99.9,-100.00,NNW,343,7.0,-999.0,-999,-99.99,,,-99.99,,2013-03-10 09:52:00,
2013-03-10 05:02:00,28.0,-99.9,-100.00,North,-999,5.0,-999.0,-999,-99.99,,,-99.99,,2013-03-10 10:02:00,
2013-03-10 05:11:00,28.0,27.0,-100.00,NW,308,6.0,-999.0,99,-99.99,,,-99.99,,2013-03-10 10:11:00,
2013-03-10 05:21:00,28.0,27.0,-100.00,NW,308,6.0,-999.0,99,-99.99,,,-99.99,,2013-03-10 10:21:00,
2013-03-10 05:32:00,27.0,27.0,-100.00,North,-999,2.0,-999.0,99,-99.99,,,-99.99,,2013-03-10 10:32:00,
2013-03-10 05:41:00,27.0,27.0,-100.00,North,-999,2.0,-999.0,99,-99.99,,,-99.99,,2013-03-10 10:41:00,
2013-03-10 05:52:00,27.0,-99.9,-100.00,North,-999,3.0,-999.0,-999,-99.99,,,-99.99,,2013-03-10 10:52:00,
2013-03-10 06:02:00,27.0,-99.9,-100.00,North,-999,1.0,-999.0,-999,-99.99,,,-99.99,,2013-03-10 11:02:00,
2013-03-10 06:12:00,27.0,-99.9,-100.00,North,-999,5.0,-999.0,-999,-99.99,,,-99.99,,2013-03-10 11:12:00,
2013-03-10 06:22:00,27.0,-99.9,-100.00,NNW,337,5.0,-999.0,-999,-99.99,,,-99.99,,2013-03-10 11:22:00,
2013-03-10 06:32:00,27.0,-99.9,-100.00,North,-999,5.0,-999.0,-999,-99.99,,,-99.99,,2013-03-10 11:32:00,
2013-03-10 06:42:00,27.0,-99.9,-100.00,NNW,343,1.0,-999.0,-999,-99.99,,,-99.99,,2013-03-10 11:42:00,
2013-03-10 06:52:00,27.0,-99.9,-100.00,NNW,343,0.0,-999.0,-999,-99.99,,,-99.99,,2013-03-10 11:52:00,
2013-03-10 07:02:00,26.0,-99.9,-100.00,NNW,336,1.0,-999.0,-999,-99.99,,,-99.99,,2013-03-10 12:02:00,
2013-03-10 07:11:00,26.0,-99.9,-100.00,NNW,342,1.0,-999.0,-999,-99.99,,,-99.99,,2013-03-10 12:11:00,
2013-03-10 07:21:00,26.0,-99.9,-100.00,West,259,2.0,-999.0,-999,-99.99,,,-99.99,,2013-03-10 12:21:00,
2013-03-10 07:32:00,26.0,-99.9,-100.00,North,-999,3.0,-999.0,-999,-99.99,,,-99.99,,2013-03-10 12:32:00,
2013-03-10 07:42:00,26.0,-99.9,-100.00,WSW,258,1.0,-999.0,-999,-99.99,,,-99.99,,2013-03-10 12:42:00,
2013-03-10 07:51:00,26.0,25.0,-100.00,NNW,338,6.0,-999.0,99,-99.99,,,-99.99,,2013-03-10 12:51:00,
2013-03-10 08:01:00,26.0,25.0,-100.00,NNW,338,6.0,-999.0,99,-99.99,,,-99.99,,2013-03-10 13:01:00,
2013-03-10 08:11:00,25.0,-99.9,-100.00,NNW,344,6.0,-999.0,-999,-99.99,,,-99.99,,2013-03-10 13:11:00,
2013-03-10 08:21:00,25.0,-99.9,-100.00,North,-999,3.0,-999.0,-999,-99.99,,,-99.99,,2013-03-10 13:21:00,
2013-03-10 08:32:00,25.0,-99.9,-100.00,WNW,292,2.0,-999.0,-999,-99.99,,,-99.99,,2013-03-10 13:32:00,
2013-03-10 08:42:00,25.0,-99.9,-100.00,North,-999,4.0,-999.0,-999,-99.99,,,-99.99,,2013-03-10 13:42:00,
2013-03-10 08:52:00,25.0,-99.9,-100.00,North,-999,2.0,-999.0,-999,-99.99,,,-99.99,,2013-03-10 13:52:00,
2013-03-10 09:02:00,25.0,-99.9,-100.00,North,-999,2.0,-999.0,-999,-99.99,,,-99.99,,2013-03-10 14:02:00,
2013-03-10 09:12:00,25.0,-99.9,-100.00,North,-999,5.0,-999.0,-999,-99.99,,,-99.99,,2013-03-10 14:12:00,
2013-03-10 09:22:00,24.0,-99.9,-100.00,NNW,343,2.0,-999.0,-999,-99.99,,,-99.99,,2013-03-10 14:22:00,
2013-03-10 09:32:00,24.0,-99.9,-100.00,North,-999,6.0,-999.0,-999,-99.99,,,-99.99,,2013-03-10 14:32:00,
2013-03-10 09:42:00,24.0,-99.9,-100.00,NNW,344,7.0,-999.0,-999,-99.99,,,-99.99,,2013-03-10 14:42:00,
2013-03-10 09:52:00,24.0,-99.9,-100.00,NNW,343,8.0,-999.0,-999,-99.99,,,-99.99,,2013-03-10 14:52:00,
2013-03-10 10:01:00,24.0,-99.9,-100.00,NNW,343,8.0,-999.0,-999,-99.99,,,-99.99,,2013-03-10 15:01:00,
2013-03-10 10:11:00,24.0,-99.9,-100.00,North,-999,4.0,-999.0,-999,-99.99,,,-99.99,,2013-03-10 15:11:00,
2013-03-10 10:22:00,24.0,-99.9,-100.00,North,-999,10.0,-999.0,-999,-99.99,,,-99.99,,2013-03-10 15:22:00,
2013-03-10 10:32:00,24.0,-99.9,-100.00,NNW,341,10.0,-999.0,-999,-99.99,,,-99.99,,2013-03-10 15:32:00,
2013-03-10 10:42:00,24.0,-99.9,-100.00,NNW,341,11.0,-999.0,-999,-99.99,,,-99.99,,2013-03-10 15:42:00,
2013-03-10 10:52:00,23.0,-99.9,-100.00,NNW,344,9.0,-999.0,-999,-99.99,,,-99.99,,2013-03-10 15:52:00,
2013-03-10 11:02:00,23.0,-99.9,-100.00,NNW,344,9.0,-999.0,-999,-99.99,,,-99.99,,2013-03-10 16:02:00,
2013-03-10 11:12:00,24.0,-99.9,-100.00,NNW,344,9.0,-999.0,-999,-99.99,,,-99.99,,2013-03-10 16:12:00,
2013-03-10 11:22:00,24.0,-99.9,-100.00,NNW,344,9.0,-999.0,-999,-99.99,,,-99.99,,2013-03-10 16:22:00,
2013-03-10 11:32:00,24.0,-99.9,-100.00,NNW,344,9.0,-999.0,-999,-99.99,,,-99.99,,2013-03-10 16:32:00,
2013-03-10 12:01:00,24.0,-99.9,-100.00,North,-999,2.0,-999.0,-999,-99.99,,,-99.99,,2013-03-10 17:01:00,
2013-03-10 12:11:00,24.0,-99.9,-100.00,North,-999,2.0,-999.0,-999,-99.99,,,-99.99,,2013-03-10 17:11:00,
2013-03-10 12:21:00,24.0,-99.9,-100.00,North,-999,2.0,-999.0,-999,-99.99,,,-99.99,,2013-03-10 17:21:00,
2013-03-10 12:52:00,24.0,-99.9,-100.00,North,-999,4.0,-999.0,-999,-99.99,,,-99.99,,2013-03-10 17:52:00,
2013-03-10 13:01:00,24.0,-99.9,-100.00,North,-999,4.0,-999.0,-999,-99.99,,,-99.99,,2013-03-10 18:01:00,
2013-03-10 13:12:00,24.0,-99.9,-100.00,NNW,343,3.0,-999.0,-999,-99.99,,,-99.99,,2013-03-10 18:12:00,
2013-03-10 13:22:00,24.0,-99.9,-100.00,NNW,342,4.0,-999.0,-999,-99.99,,,-99.99,,2013-03-10 18:22:00,
2013-03-10 13:32:00,24.0,-99.9,-100.00,NNW,342,4.0,-999.0,-999,-99.99,,,-99.99,,2013-03-10 18:32:00,
2013-03-10 13:42:00,24.0,-99.9,-100.00,NNW,342,8.0,-999.0,-999,-99.99,,,-99.99,,2013-03-10 18:42:00,
2013-03-10 13:53:00,24.0,-99.9,-100.00,North,-999,17.0,-999.0,-999,-99.99,,,-99.99,,2013-03-10 18:53:00,
2013-03-10 14:12:00,24.0,-99.9,-100.00,North,-999,3.0,-999.0,-999,-99.99,,,-99.99,,2013-03-10 19:12:00,
2013-03-10 14:22:00,23.0,-99.9,-100.00,North,-999,9.0,-999.0,-999,-99.99,,,-99.99,,2013-03-10 19:22:00,
2013-03-10 14:32:00,23.0,-99.9,-100.00,NNW,342,4.0,-999.0,-999,-99.99,,,-99.99,,2013-03-10 19:32:00,
2013-03-10 14:42:00,23.0,-99.9,-100.00,North,-999,7.0,-999.0,-999,-99.99,,,-99.99,,2013-03-10 19:42:00,
2013-03-10 14:53:00,23.0,-99.9,-100.00,NNW,344,13.0,-999.0,-999,-99.99,,,-99.99,,2013-03-10 19:53:00,
2013-03-10 15:02:00,23.0,-99.9,-100.00,NNW,344,13.0,-999.0,-999,-99.99,,,-99.99,,2013-03-10 20:02:00,
2013-03-10 15:13:00,23.0,-99.9,-100.00,NNW,339,8.0,-999.0,-999,-99.99,,,-99.99,,2013-03-10 20:13:00,
2013-03-10 15:22:00,23.0,-99.9,-100.00,NNW,329,6.0,-999.0,-999,-99.99,,,-99.99,,2013-03-10 20:22:00,
2013-03-10 15:33:00,23.0,-99.9,-100.00,NNW,335,3.0,-999.0,-999,-99.99,,,-99.99,,2013-03-10 20:33:00,
2013-03-10 15:43:00,23.0,-99.9,-100.00,North,-999,5.0,-999.0,-999,-99.99,,,-99.99,,2013-03-10 20:43:00,
2013-03-10 15:53:00,23.0,-99.9,-100.00,NNW,342,6.0,-999.0,-999,-99.99,,,-99.99,,2013-03-10 20:53:00,
2013-03-10 16:02:00,23.0,-99.9,-100.00,NNW,342,6.0,-999.0,-999,-99.99,,,-99.99,,2013-03-10 21:02:00,
2013-03-10 16:12:00,24.0,-99.9,-100.00,WSW,258,4.0,-999.0,-999,-99.99,,,-99.99,,2013-03-10 21:12:00,
2013-03-10 16:23:00,24.0,-99.9,-100.00,NNW,341,3.0,-999.0,-999,-99.99,,,-99.99,,2013-03-10 21:23:00,
2013-03-10 16:33:00,24.0,-99.9,-100.00,NNW,344,4.0,-999.0,-999,-99.99,,,-99.99,,2013-03-10 21:33:00,
2013-03-10 16:43:00,24.0,-99.9,-100.00,NNW,335,6.0,-999.0,-999,-99.99,,,-99.99,,2013-03-10 21:43:00,
2013-03-10 16:53:00,24.0,-99.9,-100.00,NW,323,6.0,-999.0,-999,-99.99,,,-99.99,,2013-03-10 21:53:00,
2013-03-10 17:03:00,24.0,-99.9,-100.00,NNW,335,4.0,-999.0,-999,-99.99,,,-99.99,,2013-03-10 22:03:00,
2013-03-10 17:12:00,24.0,-99.9,-100.00,NW,315,7.0,-999.0,-999,-99.99,,,-99.99,,2013-03-10 22:12:00,
2013-03-10 17:23:00,24.0,-99.9,-100.00,NNW,336,6.0,-999.0,-999,-99.99,,,-99.99,,2013-03-10 22:23:00,
2013-03-10 17:33:00,24.0,-99.9,-100.00,NNW,328,5.0,-999.0,-999,-99.99,,,-99.99,,2013-03-10 22:33:00,
2013-03-10 17:43:00,23.0,-99.9,-100.00,NNW,339,11.0,-999.0,-999,-99.99,,,-99.99,,2013-03-10 22:43:00,
2013-03-10 17:53:00,24.0,-99.9,-100.00,NW,322,5.0,-999.0,-999,-99.99,,,-99.99,,2013-03-10 22:53:00,
2013-03-10 18:03:00,24.0,-99.9,-100.00,NNW,329,5.0,-999.0,-999,-99.99,,,-99.99,,2013-03-10 23:03:00,
2013-03-10 18:13:00,24.0,-99.9,-100.00,NNW,336,9.0,-999.0,-999,-99.99,,,-99.99,,2013-03-10 23:13:00,
2013-03-10 18:23:00,24.0,-99.9,-100.00,NNW,329,4.0,-999.0,-999,-99.99,,,-99.99,,2013-03-10 23:23:00,
2013-03-10 18:33:00,23.0,-99.9,-100.00,NW,320,7.0,-999.0,-999,-99.99,,,-99.99,,2013-03-10 23:33:00,
2013-03-10 18:43:00,23.0,-99.9,-100.00,NW,320,7.0,-999.0,-999,-99.99,,,-99.99,,2013-03-10 23:43:00,
2013-03-10 18:53:00,23.0,-99.9,-100.00,NNW,342,6.0,-999.0,-999,-99.99,,,-99.99,,2013-03-10 23:53:00,
2013-03-10 19:03:00,23.0,-99.9,-100.00,NNW,329,1.0,-999.0,-999,-99.99,,,-99.99,,2013-03-11 00:03:00,
2013-03-10 19:13:00,23.0,-99.9,-100.00,NNW,339,3.0,-999.0,-999,-99.99,,,-99.99,,2013-03-11 00:13:00,
2013-03-10 19:23:00,24.0,-99.9,-100.00,NNW,343,3.0,-999.0,-999,-99.99,,,-99.99,,2013-03-11 00:23:00,
2013-03-10 19:34:00,24.0,-99.9,-100.00,NW,325,5.0,-999.0,-999,-99.99,,,-99.99,,2013-03-11 00:34:00,
2013-03-10 19:43:00,23.0,-99.9,-100.00,NNW,339,7.0,-999.0,-999,-99.99,,,-99.99,,2013-03-11 00:43:00,
2013-03-10 19:53:00,23.0,-99.9,-100.00,NNW,340,4.0,-999.0,-999,-99.99,,,-99.99,,2013-03-11 00:53:00,
2013-03-10 20:03:00,23.0,-99.9,-100.00,NNW,332,3.0,-999.0,-999,-99.99,,,-99.99,,2013-03-11 01:03:00,
2013-03-10 20:13:00,22.0,-99.9,-100.00,NNW,339,2.0,-999.0,-999,-99.99,,,-99.99,,2013-03-11 01:13:00,
2013-03-10 20:23:00,22.0,-99.9,-100.00,NNW,337,12.0,-999.0,-999,-99.99,,,-99.99,,2013-03-11 01:23:00,
2013-03-10 20:33:00,22.0,-99.9,-100.00,NNW,335,6.0,-999.0,-999,-99.99,,,-99.99,,2013-03-11 01:33:00,
2013-03-10 20:43:00,21.0,-99.9,-100.00,North,-999,5.0,-999.0,-999,-99.99,,,-99.99,,2013-03-11 01:43:00,
2013-03-10 20:54:00,21.0,-99.9,-100.00,NNW,329,6.0,-999.0,-999,-99.99,,,-99.99,,2013-03-11 01:54:00,
2013-03-10 21:03:00,21.0,-99.9,-100.00,NNW,341,4.0,-999.0,-999,-99.99,,,-99.99,,2013-03-11 02:03:00,
2013-03-10 21:13:00,21.0,-99.9,-100.00,NNW,329,2.0,-999.0,-999,-99.99,,,-99.99,,2013-03-11 02:13:00,
2013-03-10 21:23:00,21.0,-99.9,-100.00,NW,322,4.0,-999.0,-999,-99.99,,,-99.99,,2013-03-11 02:23:00,
2013-03-10 21:33:00,20.0,-99.9,-100.00,NNW,334,6.0,-999.0,-999,-99.99,,,-99.99,,2013-03-11 02:33:00,
2013-03-10 21:43:00,21.0,-99.9,-100.00,NW,323,6.0,-999.0,-999,-99.99,,,-99.99,,2013-03-11 02:43:00,
2013-03-10 21:53:00,20.0,-99.9,-100.00,NNW,340,3.0,-999.0,-999,-99.99,,,-99.99,,2013-03-11 02:53:00,
2013-03-10 22:02:00,20.0,-99.9,-100.00,NNW,336,7.0,-999.0,-999,-99.99,,,-99.99,,2013-03-11 03:02:00,
2013-03-10 22:13:00,20.0,-99.9,-100.00,NNW,334,4.0,-999.0,-999,-99.99,,,-99.99,,2013-03-11 03:13:00,
2013-03-10 22:22:00,20.0,-99.9,-100.00,NW,323,6.0,-999.0,-999,-99.99,,,-99.99,,2013-03-11 03:22:00,
2013-03-10 22:32:00,20.0,-99.9,-100.00,NNW,336,9.0,-999.0,-999,-99.99,,,-99.99,,2013-03-11 03:32:00,
2013-03-10 22:43:00,20.0,-99.9,-100.00,North,-999,2.0,-999.0,-999,-99.99,,,-99.99,,2013-03-11 03:43:00,
2013-03-10 22:53:00,20.0,-99.9,-100.00,NNW,338,3.0,-999.0,-999,-99.99,,,-99.99,,2013-03-11 03:53:00,
2013-03-10 23:03:00,20.0,-99.9,-100.00,NNW,341,1.0,-999.0,-999,-99.99,,,-99.99,,2013-03-11 04:03:00,
2013-03-10 23:12:00,20.0,-99.9,-100.00,NNW,332,5.0,-999.0,-999,-99.99,,,-99.99,,2013-03-11 04:12:00,
2013-03-10 23:23:00,20.0,-99.9,-100.00,NNW,328,8.0,-999.0,-999,-99.99,,,-99.99,,2013-03-11 04:23:00,
2013-03-10 23:33:00,20.0,-99.9,-100.00,NW,323,5.0,-999.0,-999,-99.99,,,-99.99,,2013-03-11 04:33:00,
2013-03-10 23:43:00,20.0,-99.9,-100.00,NW,323,5.0,-999.0,-999,-99.99,,,-99.99,,2013-03-11 04:43:00,
2013-03-10 23:53:00,20.0,-99.9,-100.00,NW,321,1.0,-999.0,-999,-99.99,,,-99.99,,2013-03-11 04:53:00,